Regional Weather Roundup
Issued by NWS

Home | Current Version | Previous Version | Graphics & Text | Print | Product List | Glossary On
Versions: 1 2 3 4 5 6 7 8 9 10 11 12 13 14 15 16 17 18 19 20 21 22 23 24 25 26 27 28 29 30 31 32 33 34 35 36 37 38 39 40 41 42 43 44 45 46 47 48 49 50
000
ASUS43 KBIS 241402
RWRND

NORTH DAKOTA REGIONAL WEATHER ROUNDUP
NATIONAL WEATHER SERVICE BISMARCK ND
900 AM CDT SUN SEP 24 2017

NOTE: "FAIR" INDICATES FEW OR NO CLOUDS BELOW 12,000 FEET WITH NO
SIGNIFICANT WEATHER AND/OR OBSTRUCTIONS TO VISIBILITY.


NDZ001>003-009>011-017-241500-
NORTHWEST NORTH DAKOTA

CITY           SKY/WX    TMP DP  RH WIND       PRES   REMARKS
WILLISTON      LGT RAIN  44  42  93 N8        30.12R
MINOT          LGT RAIN  47  45  93 NW13      30.05R
MINOT AFB      LGT RAIN  46  45  95 N9        30.05R
$$

NDZ018>021-031>035-040>046-241500-
SOUTHWEST NORTH DAKOTA

CITY           SKY/WX    TMP DP  RH WIND       PRES   REMARKS
BISMARCK       LGT RAIN  49  48  97 N13       29.98R
DICKINSON      LGT RAIN  43  43 100 N14       30.01F FOG
GARRISON         N/A     46  45  96 N9        30.02R
HETTINGER ARPT CLOUDY    44  42  93 N10G22    30.03F
$$

NDZ004>008-012>016-024-026-027-054-241500-
NORTHEAST NORTH DAKOTA

CITY           SKY/WX    TMP DP  RH WIND       PRES   REMARKS
GRAND FORKS    LGT RAIN  52  52 100 N17       29.86F FOG
GRND FRKS AFB  LGT RAIN  50  50 100 N15G22    29.89F
DEVILS LAKE    LGT RAIN  47  46  97 N14       29.95S FOG
$$

NDZ022-023-025-028>030-036>039-047>053-241500-
SOUTHEAST NORTH DAKOTA

CITY           SKY/WX    TMP DP  RH WIND       PRES   REMARKS
FARGO          CLOUDY    56  56 100 N7        29.84F FOG
JAMESTOWN      LGT RAIN  49  48  97 N12       29.88S FOG
$$





USA.gov is the U.S. government's official web portal to all federal, state and local government web resources and services.